EW6216 Weather Reports


Display with metric or nautical units.
time (UTC)temp
F
wind
direction
speed
MPH
gust
MPH
rain 1hr
in
rain 24hr
in
rain mn
in
humidity
%
barometer
mb
20260506015320 69 288 0.0 3.0 0.00 0.19 0.00 37 1012.3
20260506014315 69 262 0.0 1.0 0.00 0.19 0.00 36 1012.2
20260506013311 70 240 0.0 1.0 0.00 0.19 0.00 35 1012.3
20260506012326 71 266 0.0 1.0 0.00 0.19 0.00 33 1012.4
20260506011321 71 324 0.0 3.0 0.00 0.19 0.00 33 1012.4
20260506010315 72 295 0.0 2.0 0.00 0.19 0.00 33 1012.4
20260506005329 72 340 0.0 3.0 0.00 0.27 0.00 33 1012.4
20260506004341 72 307 0.0 3.0 0.00 0.27 0.00 32 1012.4
20260506003336 72 60 0.0 5.0 0.00 0.27 0.00 32 1012.4
20260506002333 73 243 0.0 6.0 0.00 0.27 0.00 33 1012.3
20260506001348 73 290 0.0 3.0 0.00 0.27 0.00 33 1012.4
20260506000317 73 339 2.0 4.0 0.00 0.27 0.00 32 1012.4
20260505235319 73 322 0.0 5.0 0.00 0.27 0.00 33 1012.4
20260505234333 72 208 1.0 4.0 0.00 0.27 0.00 33 1012.4
20260505233325 72 53 1.0 4.0 0.00 0.27 0.00 32 1012.6
20260505232320 71 288 1.0 3.0 0.00 0.27 0.00 34 1012.6
20260505231315 72 304 2.0 4.0 0.00 0.27 0.00 32 1012.7
20260505230333 72 304 0.0 3.0 0.00 0.27 0.00 35 1012.7
20260505225329 70 113 1.0 3.0 0.00 0.27 0.00 36 1012.8
20260505224321 70 70 1.0 4.0 0.00 0.27 0.00 35 1012.9
20260505223317 70 281 1.0 5.0 0.00 0.27 0.00 37 1013.0
20260505222314 70 251 1.0 5.0 0.00 0.27 0.00 37 1013.1
20260505221350 69 309 2.0 4.0 0.00 0.27 0.00 37 1013.3
20260505220347 69 301 0.0 5.0 0.00 0.27 0.00 40 1013.5
20260505215323 69 295 0.0 2.0 0.00 0.27 0.00 42 1013.5
20260505214318 68 302 0.0 3.0 0.00 0.27 0.00 42 1013.6
20260505213329 67 272 2.0 4.0 0.00 0.27 0.00 40 1013.8
20260505212323 68 198 1.0 4.0 0.00 0.27 0.00 41 1013.9
20260505211317 68 127 1.0 4.0 0.00 0.27 0.00 42 1013.9
20260505210334 67 149 1.0 4.0 0.00 0.27 0.00 44 1014.0
20260505205331 67 64 1.0 5.0 0.00 0.33 0.00 44 1014.1
20260505204346 66 276 0.0 6.0 0.00 0.33 0.00 44 1014.1
20260505203314 66 262 0.0 6.0 0.00 0.33 0.00 48 1014.2
20260505202358 65 291 0.0 5.0 0.00 0.33 0.00 49 1014.2
20260505201331 64 233 0.0 5.0 0.00 0.33 0.00 51 1014.4
20260505200344 64 71 1.0 6.0 0.00 0.33 0.00 52 1014.4
20260505195346 63 309 0.0 4.0 0.00 0.33 0.00 54 1014.5
20260505194320 63 57 1.0 5.0 0.00 0.33 0.00 52 1014.7
20260505193318 63 51 1.0 5.0 0.00 0.33 0.00 54 1014.7
20260505192335 62 120 1.0 5.0 0.00 0.33 0.00 55 1014.7
20260505191329 62 314 1.0 3.0 0.00 0.33 0.00 56 1014.6
20260505190320 61 44 0.0 2.0 0.00 0.33 0.00 59 1014.7
20260505185313 60 224 1.0 4.0 0.00 0.33 0.00 59 1014.7
20260505184326 58 269 0.0 2.0 0.00 0.33 0.00 66 1014.7
20260505183318 57 300 0.0 0.0 0.00 0.33 0.00 63 1014.7
20260505182315 57 303 0.0 0.0 0.00 0.33 0.00 62 1014.7
20260505181314 57 299 0.0 0.0 0.00 0.33 0.00 63 1014.7
20260505180329 56 207 0.0 1.0 0.00 0.33 0.00 64 1014.5
20260505175344 56 155 1.0 3.0 0.00 0.33 0.00 65 1014.6
20260505174338 55 130 0.0 1.0 0.00 0.33 0.00 67 1014.5
20260505173312 55 298 0.0 1.0 0.00 0.33 0.00 67 1014.4
20260505172328 54 172 0.0 1.0 0.00 0.33 0.00 73 1014.3
20260505171324 54 210 0.0 1.0 0.00 0.33 0.00 74 1014.3
20260505170314 53 244 1.0 2.0 0.00 0.33 0.00 75 1014.4
20260505165328 52 81 1.0 2.0 0.00 0.35 0.00 75 1014.3
20260505164324 51 109 0.0 2.0 0.00 0.35 0.00 78 1014.3
20260505163322 50 155 0.0 2.0 0.00 0.35 0.00 80 1014.3
20260505162310 50 170 0.0 0.0 0.00 0.35 0.00 81 1014.2
20260505034337 44 304 1.0 2.0 0.07 0.35 0.35 88 1012.2
20260505033328 44 310 0.0 3.0 0.07 0.35 0.35 89 1012.0
20260505032353 44 240 0.0 1.0 0.06 0.34 0.34 88 1011.6
20260505031321 44 148 0.0 1.0 0.05 0.33 0.33 88 1012.3
20260505030319 44 221 0.0 2.0 0.03 0.31 0.31 87 1012.2
20260505025316 45 254 0.0 6.0 0.02 0.30 0.30 84 1011.9
20260505024333 45 327 0.0 5.0 0.01 0.28 0.28 85 1012.3
20260505023331 45 313 1.0 6.0 0.01 0.28 0.28 85 1012.0
20260505022347 45 316 1.0 5.0 0.07 0.28 0.28 85 1011.7
20260505021322 45 316 1.0 7.0 0.10 0.28 0.28 85 1011.3